User: anonymous   Login
Location: Allison's Woods
(35.8809°N, 80.8140°W)
Time: 01:29:48
(UTC-04:00)
Language:

Iridium 39 - Orbit

View from above orbital plane
View from above orbital plane
View from above satellite
View from above satellite

Ground track
Ground track

The orbit data is extracted from the following two-line orbital elements,

1 25042U 97069D   16241.46132886  .00000123  00000-0  28712-4 0  9996
2 25042  86.3963 144.1142 0017888 200.3203 159.7289 14.46078658984415
Epoch (UTC): 28 August 2016 11:04:18
Eccentricity: 0.0017888
inclination: 86.3963°
perigee height: 726 km
apogee height: 751 km
right ascension of ascending node: 144.1142°
argument of perigee: 200.3203°
revolutions per day: 14.46078658
mean anomaly at epoch: 159.7289°
orbit number at epoch: 98441

The dashed part of the orbit path shows where the satellite is in the earth's shadow,  

DLR